| time (UTC) | temp C | wind direction | speed KPH | gust KPH | rain 1hr cm | rain 24hr cm | rain mn cm | humidity % | barometer mb |
| 20260502231829 | 13 | 225 | 0.0 | 3.2 | 0.00 | 0.33 | 0.15 | 97 | 1014.6 |
| 20260502231605 | 13 | 256 | 0.0 | 4.8 | 0.00 | 0.33 | 0.15 | 96 | 1014.8 |
| 20260502231057 | 14 | 197 | 3.2 | 4.8 | 0.03 | 0.33 | 0.15 | 96 | 1014.7 |
| 20260502230329 | 14 | 215 | 1.6 | 3.2 | 0.08 | 0.33 | 0.15 | 96 | 1014.8 |
| 20260502225829 | 14 | 230 | 1.6 | 1.6 | 0.20 | 0.33 | 0.15 | 96 | 1014.6 |
| 20260502225329 | 13 | 307 | 0.0 | 1.6 | 0.30 | 0.33 | 0.15 | 95 | 1014.5 |
| 20260502224830 | 13 | 307 | 0.0 | 1.6 | 0.30 | 0.33 | 0.15 | 95 | 1014.6 |
| 20260502224329 | 14 | 307 | 0.0 | 1.6 | 0.33 | 0.33 | 0.15 | 95 | 1014.7 |
| 20260502223834 | 14 | 297 | 0.0 | 1.6 | 0.33 | 0.33 | 0.15 | 95 | 1014.7 |
| 20260502223328 | 14 | 271 | 0.0 | 1.6 | 0.33 | 0.33 | 0.15 | 95 | 1014.7 |
| 20260502222829 | 14 | 270 | 0.0 | 4.8 | 0.33 | 0.33 | 0.15 | 95 | 1014.6 |
| 20260502222328 | 14 | 274 | 1.6 | 4.8 | 0.33 | 0.33 | 0.15 | 95 | 1014.7 |
| 20260502221830 | 14 | 295 | 1.6 | 9.7 | 0.33 | 0.33 | 0.15 | 95 | 1014.6 |
| 20260502221330 | 14 | 220 | 1.6 | 9.7 | 0.33 | 0.33 | 0.13 | 95 | 1014.3 |
| 20260502221111 | 14 | 343 | 1.6 | 4.8 | 0.30 | 0.30 | 0.10 | 94 | 1014.2 |
| 20260502220329 | 14 | 333 | 3.2 | 3.2 | 0.25 | 0.25 | 0.05 | 93 | 1015.2 |
| 20260502220304 | 14 | 306 | 1.6 | 4.8 | 0.13 | 0.13 | 0.10 | 92 | 1015.6 |
| 20260502215557 | 14 | 266 | 1.6 | 4.8 | 0.03 | 0.03 | 0.03 | 92 | 1015.8 |
| 20260502214830 | 14 | 259 | 1.6 | 11.3 | 0.03 | 0.03 | 0.03 | 91 | 1015.9 |
| 20260502214330 | 14 | 259 | 1.6 | 11.3 | 0.00 | 0.00 | 0.00 | 91 | 1015.8 |
| 20260502213831 | 14 | 323 | 3.2 | 9.7 | 0.00 | 0.00 | 0.00 | 90 | 1015.6 |
| 20260502213323 | 15 | 289 | 3.2 | 12.9 | 0.00 | 0.00 | 0.00 | 89 | 1015.8 |
| 20260502212822 | 15 | 269 | 4.8 | 12.9 | 0.00 | 0.00 | 0.00 | 88 | 1015.7 |
| 20260502212320 | 15 | 294 | 3.2 | 22.5 | 0.00 | 0.00 | 0.00 | 87 | 1016.0 |
| 20260502211821 | 15 | 279 | 8.0 | 24.1 | 0.00 | 0.00 | 0.00 | 87 | 1015.9 |
| 20260502211321 | 15 | 272 | 6.4 | 29.0 | 0.00 | 0.00 | 0.00 | 85 | 1015.9 |
| 20260502211042 | 16 | 264 | 9.7 | 22.5 | 0.00 | 0.00 | 0.00 | 83 | 1015.7 |
| 20260502210321 | 17 | 328 | 6.4 | 22.5 | 0.00 | 0.00 | 0.00 | 79 | 1015.7 |
| 20260502205802 | 17 | 253 | 8.0 | 12.9 | 0.00 | 0.00 | 0.00 | 75 | 1015.6 |
| 20260502205301 | 17 | 257 | 1.6 | 3.2 | 0.00 | 0.00 | 0.00 | 76 | 1015.4 |
| 20260502204801 | 17 | 209 | 1.6 | 4.8 | 0.00 | 0.00 | 0.00 | 76 | 1014.9 |
| 20260502204301 | 17 | 205 | 1.6 | 4.8 | 0.00 | 0.00 | 0.00 | 76 | 1014.7 |
| 20260502203800 | 17 | 212 | 0.0 | 4.8 | 0.00 | 0.00 | 0.00 | 77 | 1014.6 |
| 20260502203527 | 17 | 206 | 0.0 | 3.2 | 0.00 | 0.00 | 0.00 | 77 | 1014.6 |
| 20260502202801 | 17 | 222 | 0.0 | 4.8 | 0.00 | 0.00 | 0.00 | 76 | 1014.7 |
| 20260502202304 | 18 | 234 | 1.6 | 4.8 | 0.00 | 0.00 | 0.00 | 76 | 1014.8 |
| 20260502202033 | 18 | 138 | 1.6 | 6.4 | 0.00 | 0.00 | 0.00 | 75 | 1014.9 |
| 20260502201301 | 18 | 222 | 0.0 | 6.4 | 0.00 | 0.00 | 0.00 | 75 | 1014.8 |
| 20260502200801 | 18 | 63 | 1.6 | 3.2 | 0.00 | 0.00 | 0.00 | 76 | 1015.0 |
| 20260502200301 | 18 | 259 | 0.0 | 4.8 | 0.00 | 0.00 | 0.00 | 76 | 1015.0 |
| 20260502195801 | 18 | 203 | 1.6 | 4.8 | 0.00 | 0.00 | 0.00 | 75 | 1015.2 |
| 20260502195304 | 18 | 243 | 0.0 | 4.8 | 0.00 | 0.00 | 0.00 | 75 | 1015.1 |
| 20260502194800 | 18 | 264 | 0.0 | 6.4 | 0.00 | 0.00 | 0.00 | 75 | 1015.0 |
| 20260502194301 | 18 | 173 | 3.2 | 12.9 | 0.00 | 0.00 | 0.00 | 75 | 1015.2 |
| 20260502193757 | 19 | 105 | 4.8 | 14.5 | 0.00 | 0.00 | 0.00 | 74 | 1015.3 |
| 20260502193258 | 19 | 134 | 8.0 | 14.5 | 0.00 | 0.00 | 0.00 | 74 | 1015.3 |
| 20260502192750 | 19 | 144 | 6.4 | 11.3 | 0.00 | 0.00 | 0.00 | 74 | 1015.4 |
| 20260502192249 | 19 | 63 | 8.0 | 11.3 | 0.00 | 0.00 | 0.00 | 72 | 1015.4 |
| 20260502191750 | 20 | 298 | 0.0 | 1.6 | 0.00 | 0.00 | 0.00 | 70 | 1015.4 |
| 20260502191250 | 20 | 270 | 0.0 | 1.6 | 0.00 | 0.00 | 0.00 | 70 | 1015.2 |
| 20260502190749 | 20 | 309 | 0.0 | 1.6 | 0.00 | 0.00 | 0.00 | 70 | 1015.2 |
| 20260502190517 | 20 | 309 | 0.0 | 1.6 | 0.00 | 0.00 | 0.00 | 69 | 1015.1 |
| 20260502185749 | 20 | 310 | 0.0 | 1.6 | 0.00 | 0.00 | 0.00 | 69 | 1015.1 |
| 20260502185248 | 20 | 325 | 0.0 | 3.2 | 0.00 | 0.00 | 0.00 | 68 | 1015.0 |
| 20260502184748 | 20 | 312 | 0.0 | 3.2 | 0.00 | 0.00 | 0.00 | 68 | 1014.9 |
| 20260502184248 | 20 | 303 | 0.0 | 4.8 | 0.00 | 0.00 | 0.00 | 68 | 1015.1 |
| 20260502183752 | 20 | 328 | 1.6 | 3.2 | 0.00 | 0.00 | 0.00 | 66 | 1015.5 |
| 20260502183747 | 20 | 345 | 1.6 | 4.8 | 0.00 | 0.00 | 0.00 | 67 | 1015.0 |
| 20260502182747 | 21 | 287 | 0.0 | 3.2 | 0.00 | 0.00 | 0.00 | 65 | 1015.3 |
| 20260502182249 | 21 | 281 | 1.6 | 4.8 | 0.00 | 0.00 | 0.00 | 64 | 1015.3 |
| 20260502181749 | 21 | 278 | 0.0 | 4.8 | 0.00 | 0.00 | 0.00 | 63 | 1015.3 |
| 20260502181248 | 21 | 285 | 1.6 | 4.8 | 0.00 | 0.00 | 0.00 | 63 | 1015.3 |
| 20260502181012 | 21 | 272 | 0.0 | 6.4 | 0.00 | 0.00 | 0.00 | 62 | 1015.1 |
| 20260502180247 | 21 | 275 | 3.2 | 9.7 | 0.00 | 0.00 | 0.00 | 62 | 1015.2 |
| 20260502170511 | 23 | 279 | 0.0 | 1.6 | 0.00 | 0.00 | 0.00 | 53 | 1015.4 |
| 20260502164230 | 23 | 304 | 0.0 | 1.6 | 0.00 | 0.00 | 0.00 | 52 | 1015.5 |
| 20260502163729 | 23 | 304 | 0.0 | 3.2 | 0.00 | 0.00 | 0.00 | 52 | 1015.8 |
| 20260502163229 | 23 | 251 | 0.0 | 3.2 | 0.00 | 0.00 | 0.00 | 51 | 1016.0 |
| 20260502162729 | 23 | 235 | 0.0 | 3.2 | 0.00 | 0.00 | 0.00 | 50 | 1016.0 |
| 20260502162229 | 23 | 230 | 1.6 | 3.2 | 0.00 | 0.00 | 0.00 | 50 | 1015.8 |
| 20260502161729 | 23 | 163 | 3.2 | 3.2 | 0.00 | 0.00 | 0.00 | 50 | 1015.8 |
| 20260502161229 | 23 | 215 | 1.6 | 3.2 | 0.00 | 0.00 | 0.00 | 51 | 1016.1 |
| 20260502160729 | 23 | 266 | 3.2 | 4.8 | 0.00 | 0.00 | 0.00 | 51 | 1016.1 |
| 20260502160450 | 23 | 270 | 1.6 | 4.8 | 0.00 | 0.00 | 0.00 | 50 | 1016.1 |
| 20260502151714 | 25 | 191 | 3.2 | 6.4 | 0.00 | 0.00 | 0.00 | 48 | 1016.8 |
| 20260502151213 | 25 | 215 | 1.6 | 4.8 | 0.00 | 0.00 | 0.00 | 49 | 1016.8 |
| 20260502150712 | 24 | 262 | 3.2 | 6.4 | 0.00 | 0.00 | 0.00 | 51 | 1016.8 |
| 20260502150214 | 23 | 232 | 4.8 | 6.4 | 0.00 | 0.00 | 0.00 | 51 | 1017.1 |
| 20260502130710 | 23 | 129 | 3.2 | 4.8 | 0.00 | 0.00 | 0.00 | 53 | 1018.2 |
| 20260502130211 | 23 | 277 | 1.6 | 9.7 | 0.00 | 0.00 | 0.00 | 52 | 1018.5 |
| 20260502123431 | 24 | 119 | 4.8 | 11.3 | 0.00 | 0.00 | 0.00 | 51 | 1018.8 |
| 20260502122931 | 24 | 218 | 8.0 | 9.7 | 0.00 | 0.00 | 0.00 | 52 | 1018.7 |
| 20260502122432 | 23 | 263 | 0.0 | 12.9 | 0.00 | 0.00 | 0.00 | 52 | 1018.6 |
| 20260502121709 | 23 | 221 | 8.0 | 12.9 | 0.00 | 0.00 | 0.00 | 52 | 1018.9 |
| 20260502121209 | 23 | 242 | 1.6 | 9.7 | 0.00 | 0.00 | 0.00 | 53 | 1019.0 |
| 20260502120709 | 23 | 161 | 3.2 | 9.7 | 0.00 | 0.00 | 0.00 | 53 | 1019.0 |
| 20260502120209 | 23 | 252 | 3.2 | 12.9 | 0.00 | 0.00 | 0.00 | 54 | 1018.9 |
| 20260502115708 | 22 | 213 | 3.2 | 14.5 | 0.00 | 0.00 | 0.00 | 56 | 1019.0 |
| 20260502115210 | 23 | 151 | 6.4 | 11.3 | 0.00 | 0.00 | 0.00 | 54 | 1019.2 |
| 20260502114710 | 23 | 261 | 0.0 | 11.3 | 0.00 | 0.00 | 0.00 | 55 | 1019.0 |
| 20260502114208 | 23 | 314 | 4.8 | 11.3 | 0.00 | 0.00 | 0.00 | 55 | 1019.3 |
| 20260502113710 | 23 | 290 | 3.2 | 11.3 | 0.00 | 0.00 | 0.00 | 55 | 1019.1 |
| 20260502113209 | 22 | 270 | 3.2 | 11.3 | 0.00 | 0.00 | 0.00 | 55 | 1019.2 |
| 20260502112710 | 22 | 245 | 4.8 | 12.9 | 0.00 | 0.00 | 0.00 | 55 | 1019.1 |
| 20260502112439 | 23 | 164 | 8.0 | 12.9 | 0.00 | 0.00 | 0.00 | 54 | 1019.3 |
| 20260502111708 | 23 | 245 | 0.0 | 9.7 | 0.00 | 0.00 | 0.00 | 53 | 1019.3 |
| 20260502111207 | 22 | 219 | 1.6 | 11.3 | 0.00 | 0.00 | 0.00 | 55 | 1019.4 |
| 20260502110709 | 22 | 229 | 4.8 | 12.9 | 0.00 | 0.00 | 0.00 | 54 | 1019.2 |
| 20260502110208 | 22 | 197 | 3.2 | 12.9 | 0.00 | 0.00 | 0.00 | 55 | 1019.2 |
| 20260502105707 | 22 | 138 | 3.2 | 12.9 | 0.00 | 0.00 | 0.00 | 56 | 1019.5 |
| 20260502105206 | 23 | 159 | 4.8 | 9.7 | 0.00 | 0.00 | 0.00 | 53 | 1019.5 |
| 20260502104707 | 23 | 150 | 3.2 | 9.7 | 0.00 | 0.00 | 0.00 | 53 | 1019.5 |
| 20260502104205 | 22 | 194 | 4.8 | 12.9 | 0.00 | 0.00 | 0.00 | 54 | 1019.6 |
| 20260502103701 | 22 | 235 | 8.0 | 12.9 | 0.00 | 0.00 | 0.00 | 55 | 1019.5 |
| 20260502103201 | 22 | 196 | 3.2 | 11.3 | 0.00 | 0.00 | 0.00 | 56 | 1019.5 |
| 20260502102701 | 22 | 269 | 4.8 | 9.7 | 0.00 | 0.00 | 0.00 | 54 | 1019.5 |
| 20260502102206 | 22 | 285 | 4.8 | 11.3 | 0.00 | 0.00 | 0.00 | 55 | 1019.7 |
| 20260502101705 | 22 | 281 | 6.4 | 11.3 | 0.00 | 0.00 | 0.00 | 54 | 1019.6 |
| 20260502101201 | 22 | 232 | 4.8 | 9.7 | 0.00 | 0.00 | 0.00 | 56 | 1019.9 |
| 20260502100924 | 22 | 215 | 4.8 | 9.7 | 0.00 | 0.00 | 0.00 | 55 | 1019.9 |
| 20260502100429 | 22 | 178 | 1.6 | 11.3 | 0.00 | 0.00 | 0.00 | 56 | 1019.8 |
| 20260502091134 | 21 | 126 | 4.8 | 11.3 | 0.00 | 0.00 | 0.00 | 55 | 1020.0 |
| 20260502090633 | 21 | 241 | 0.0 | 11.3 | 0.00 | 0.00 | 0.00 | 53 | 1020.0 |
| 20260502090133 | 21 | 226 | 1.6 | 4.8 | 0.00 | 0.00 | 0.00 | 54 | 1020.1 |
| 20260502071136 | 16 | 213 | 1.6 | 6.4 | 0.00 | 0.00 | 0.00 | 56 | 1020.2 |
| 20260502070630 | 16 | 267 | 1.6 | 9.7 | 0.00 | 0.00 | 0.00 | 56 | 1020.5 |
| 20260502070352 | 15 | 167 | 3.2 | 9.7 | 0.00 | 0.00 | 0.00 | 56 | 1020.4 |
| 20260502065631 | 15 | 158 | 1.6 | 4.8 | 0.00 | 0.00 | 0.00 | 59 | 1020.5 |
| 20260502065130 | 14 | 176 | 0.0 | 3.2 | 0.00 | 0.00 | 0.00 | 61 | 1020.5 |
| 20260502064630 | 13 | 230 | 1.6 | 3.2 | 0.00 | 0.00 | 0.00 | 62 | 1020.5 |
| 20260502064130 | 13 | 212 | 0.0 | 3.2 | 0.00 | 0.00 | 0.00 | 61 | 1020.4 |
| 20260502063629 | 13 | 191 | 1.6 | 3.2 | 0.00 | 0.00 | 0.00 | 62 | 1020.4 |
| 20260502063130 | 13 | 239 | 0.0 | 3.2 | 0.00 | 0.00 | 0.00 | 62 | 1020.3 |
| 20260502062629 | 13 | 242 | 0.0 | 3.2 | 0.00 | 0.00 | 0.00 | 60 | 1020.0 |
| 20260502062131 | 13 | 268 | 0.0 | 3.2 | 0.00 | 0.00 | 0.00 | 62 | 1020.1 |
| 20260502062123 | 13 | 271 | 0.0 | 4.8 | 0.00 | 0.00 | 0.00 | 60 | 1020.1 |
| 20260502061130 | 13 | 236 | 0.0 | 4.8 | 0.00 | 0.00 | 0.00 | 58 | 1020.4 |
| 20260502060630 | 13 | 265 | 0.0 | 4.8 | 0.00 | 0.00 | 0.00 | 57 | 1020.3 |
| 20260502060130 | 13 | 224 | 1.6 | 4.8 | 0.00 | 0.00 | 0.00 | 57 | 1020.1 |
| 20260502060121 | 13 | 228 | 0.0 | 4.8 | 0.00 | 0.00 | 0.00 | 57 | 1020.1 |
| 20260502055130 | 13 | 230 | 0.0 | 4.8 | 0.00 | 0.00 | 0.00 | 56 | 1020.3 |
| 20260502054630 | 13 | 259 | 1.6 | 4.8 | 0.00 | 0.00 | 0.00 | 56 | 1020.2 |
| 20260502054129 | 13 | 182 | 3.2 | 4.8 | 0.00 | 0.00 | 0.00 | 55 | 1020.1 |
| 20260502053857 | 13 | 317 | 0.0 | 3.2 | 0.00 | 0.00 | 0.00 | 56 | 1020.1 |
| 20260502053353 | 13 | 227 | 0.0 | 4.8 | 0.00 | 0.00 | 0.00 | 55 | 1020.1 |
| 20260502052628 | 13 | 211 | 1.6 | 9.7 | 0.00 | 0.00 | 0.00 | 55 | 1020.1 |
| 20260502052129 | 13 | 180 | 3.2 | 9.7 | 0.00 | 0.00 | 0.00 | 55 | 1020.2 |
| 20260502051629 | 13 | 189 | 1.6 | 6.4 | 0.00 | 0.00 | 0.00 | 55 | 1020.1 |
| 20260502051129 | 12 | 189 | 1.6 | 4.8 | 0.00 | 0.00 | 0.00 | 55 | 1020.1 |
| 20260502050629 | 12 | 226 | 1.6 | 4.8 | 0.00 | 0.00 | 0.00 | 57 | 1020.1 |
| 20260502050129 | 12 | 225 | 0.0 | 4.8 | 0.00 | 0.00 | 0.00 | 57 | 1020.0 |
| 20260502045630 | 12 | 211 | 0.0 | 4.8 | 0.00 | 0.00 | 0.00 | 58 | 1020.0 |
| 20260502045359 | 12 | 205 | 1.6 | 3.2 | 0.00 | 0.00 | 0.00 | 58 | 1020.1 |
| 20260502044629 | 11 | 229 | 0.0 | 3.2 | 0.00 | 0.00 | 0.00 | 59 | 1019.9 |
| 20260502044129 | 11 | 198 | 3.2 | 3.2 | 0.00 | 0.00 | 0.00 | 58 | 1019.8 |
| 20260502043628 | 11 | 206 | 1.6 | 3.2 | 0.00 | 0.00 | 0.00 | 59 | 1019.9 |
| 20260502043129 | 11 | 232 | 1.6 | 3.2 | 0.00 | 0.00 | 0.00 | 59 | 1019.9 |
| 20260502042630 | 11 | 248 | 0.0 | 4.8 | 0.00 | 0.00 | 0.00 | 60 | 1020.0 |
| 20260502042133 | 11 | 214 | 0.0 | 4.8 | 0.00 | 0.00 | 0.00 | 60 | 1019.8 |
| 20260502041629 | 11 | 223 | 0.0 | 4.8 | 0.00 | 0.00 | 0.00 | 61 | 1019.9 |
| 20260502041129 | 11 | 200 | 1.6 | 4.8 | 0.00 | 0.00 | 0.00 | 61 | 1020.0 |
| 20260502040629 | 11 | 220 | 0.0 | 3.2 | 0.00 | 0.00 | 0.00 | 61 | 1020.1 |
| 20260502040134 | 10 | 222 | 0.0 | 3.2 | 0.00 | 0.00 | 0.00 | 63 | 1019.9 |
| 20260502035632 | 10 | 214 | 1.6 | 3.2 | 0.00 | 0.00 | 0.00 | 62 | 1020.1 |
| 20260502035131 | 10 | 208 | 0.0 | 3.2 | 0.00 | 0.00 | 0.00 | 64 | 1020.1 |
| 20260502034630 | 10 | 218 | 0.0 | 3.2 | 0.00 | 0.00 | 0.00 | 65 | 1020.1 |
| 20260502034130 | 10 | 207 | 1.6 | 3.2 | 0.00 | 0.00 | 0.00 | 66 | 1020.4 |
| 20260502033630 | 10 | 227 | 0.0 | 1.6 | 0.00 | 0.00 | 0.00 | 66 | 1020.5 |
| 20260502033129 | 10 | 228 | 0.0 | 1.6 | 0.00 | 0.00 | 0.00 | 67 | 1020.3 |
| 20260502032629 | 9 | 228 | 0.0 | 0.0 | 0.00 | 0.00 | 0.00 | 67 | 1020.3 |
| 20260502032129 | 10 | 228 | 0.0 | 0.0 | 0.00 | 0.00 | 0.00 | 67 | 1020.3 |
| 20260502031628 | 10 | 228 | 0.0 | 0.0 | 0.00 | 0.00 | 0.00 | 67 | 1020.3 |
| 20260502031129 | 10 | 228 | 0.0 | 1.6 | 0.00 | 0.00 | 0.00 | 66 | 1020.3 |
| 20260502031113 | 9 | 228 | 0.0 | 1.6 | 0.00 | 0.00 | 0.00 | 67 | 1020.1 |
| 20260502030348 | 8 | 231 | 0.0 | 0.0 | 0.00 | 0.00 | 0.00 | 70 | 1020.4 |
| 20260502025625 | 8 | 231 | 0.0 | 0.0 | 0.00 | 0.00 | 0.00 | 70 | 1020.4 |
| 20260502025124 | 8 | 231 | 0.0 | 0.0 | 0.00 | 0.00 | 0.00 | 69 | 1020.3 |
| 20260502024625 | 9 | 231 | 0.0 | 0.0 | 0.00 | 0.00 | 0.00 | 68 | 1020.5 |
| 20260502024607 | 9 | 231 | 0.0 | 0.0 | 0.00 | 0.00 | 0.00 | 67 | 1020.6 |
| 20260502023602 | 10 | 231 | 0.0 | 0.0 | 0.00 | 0.00 | 0.00 | 67 | 1020.6 |
| 20260502023101 | 10 | 231 | 0.0 | 0.0 | 0.00 | 0.00 | 0.00 | 66 | 1020.5 |
| 20260502022601 | 10 | 231 | 0.0 | 0.0 | 0.00 | 0.00 | 0.00 | 67 | 1020.5 |
| 20260502022100 | 10 | 231 | 0.0 | 0.0 | 0.00 | 0.00 | 0.00 | 66 | 1020.6 |
| 20260502021600 | 10 | 231 | 0.0 | 0.0 | 0.00 | 0.00 | 0.00 | 66 | 1020.7 |
| 20260502021100 | 10 | 231 | 0.0 | 0.0 | 0.00 | 0.00 | 0.00 | 64 | 1020.7 |
| 20260502020602 | 10 | 231 | 0.0 | 0.0 | 0.00 | 0.00 | 0.00 | 63 | 1020.8 |
| 20260502020327 | 10 | 231 | 0.0 | 0.0 | 0.00 | 0.00 | 0.00 | 61 | 1020.9 |
| 20260502015602 | 11 | 231 | 0.0 | 1.6 | 0.00 | 0.00 | 0.00 | 60 | 1020.9 |
| 20260502015101 | 11 | 231 | 0.0 | 1.6 | 0.00 | 0.00 | 0.00 | 58 | 1020.9 |
| 20260502014601 | 11 | 234 | 0.0 | 1.6 | 0.00 | 0.00 | 0.00 | 58 | 1021.1 |
| 20260502014101 | 12 | 235 | 0.0 | 1.6 | 0.00 | 0.00 | 0.00 | 56 | 1021.1 |
| 20260502014055 | 12 | 214 | 0.0 | 3.2 | 0.00 | 0.00 | 0.00 | 56 | 1021.0 |
| 20260502013104 | 12 | 215 | 0.0 | 3.2 | 0.00 | 0.00 | 0.00 | 55 | 1020.9 |
| 20260502012602 | 12 | 213 | 0.0 | 3.2 | 0.00 | 0.00 | 0.00 | 55 | 1021.2 |
| 20260502012102 | 12 | 165 | 3.2 | 3.2 | 0.00 | 0.00 | 0.00 | 54 | 1021.1 |
| 20260502011829 | 12 | 152 | 3.2 | 3.2 | 0.00 | 0.00 | 0.00 | 54 | 1021.1 |
| 20260502011101 | 12 | 214 | 0.0 | 3.2 | 0.00 | 0.00 | 0.00 | 54 | 1021.1 |
| 20260502010601 | 12 | 192 | 1.6 | 3.2 | 0.00 | 0.00 | 0.00 | 54 | 1021.2 |
| 20260502010101 | 12 | 184 | 3.2 | 3.2 | 0.00 | 0.00 | 0.00 | 54 | 1021.1 |
| 20260502005601 | 12 | 194 | 1.6 | 3.2 | 0.00 | 0.00 | 0.00 | 53 | 1021.3 |
| 20260502005101 | 13 | 212 | 1.6 | 4.8 | 0.00 | 0.00 | 0.00 | 53 | 1021.1 |
| 20260502004832 | 13 | 134 | 3.2 | 4.8 | 0.00 | 0.00 | 0.00 | 52 | 1021.2 |
| 20260502004101 | 13 | 201 | 1.6 | 4.8 | 0.00 | 0.00 | 0.00 | 52 | 1021.4 |
| 20260502003601 | 13 | 190 | 1.6 | 6.4 | 0.00 | 0.00 | 0.00 | 52 | 1021.3 |
| 20260502003101 | 13 | 179 | 6.4 | 6.4 | 0.00 | 0.00 | 0.00 | 52 | 1021.5 |
| 20260502002827 | 13 | 146 | 1.6 | 4.8 | 0.00 | 0.00 | 0.00 | 52 | 1021.4 |
| 20260502002101 | 13 | 223 | 0.0 | 4.8 | 0.00 | 0.00 | 0.00 | 52 | 1021.5 |
| 20260502001836 | 13 | 189 | 3.2 | 6.4 | 0.00 | 0.00 | 0.00 | 53 | 1021.4 |
| 20260502001102 | 13 | 154 | 3.2 | 6.4 | 0.00 | 0.00 | 0.00 | 52 | 1021.7 |
| 20260502000826 | 13 | 186 | 1.6 | 4.8 | 0.00 | 0.00 | 0.00 | 53 | 1021.6 |
| 20260501235600 | 13 | 195 | 1.6 | 6.4 | 0.00 | 0.00 | 0.00 | 52 | 1021.8 |
| 20260501235100 | 13 | 160 | 3.2 | 4.8 | 0.00 | 0.00 | 0.00 | 52 | 1021.6 |
| 20260501234604 | 13 | 185 | 1.6 | 6.4 | 0.00 | 0.00 | 0.00 | 53 | 1021.8 |
| 20260501234336 | 13 | 139 | 3.2 | 6.4 | 0.00 | 0.00 | 0.00 | 53 | 1021.8 |
| 20260501233551 | 13 | 161 | 3.2 | 4.8 | 0.00 | 0.00 | 0.00 | 53 | 1021.9 |
| 20260501233313 | 13 | 193 | 1.6 | 4.8 | 0.00 | 0.00 | 0.00 | 53 | 1021.8 |
| 20260501232550 | 13 | 196 | 1.6 | 3.2 | 0.00 | 0.00 | 0.00 | 53 | 1022.1 |